• In Lithuania
  • List of Countries
  • For 7 days
  • Water Temperature
  • Satellite Maps
  • Weather Map
  • Weather Widgets
  • user-avatar
    Login

    Hourly Weather Rostock

    Today, 13 December, Wednesday

    Time Temperature Precipitation Wind Pressure Humidity
    00:00 -3°C° 0 mm 6 mps 756 mmHg 92%
    01:00 -3°C° 0 mm 7 mps 756 mmHg 93%
    02:00 -4°C° 0 mm 7 mps 756 mmHg 93%
    03:00 -4°C° 0 mm 7 mps 756 mmHg 93%
    04:00 -4°C° 0 mm 7 mps 756 mmHg 92%
    05:00 -4°C° 0 mm 8 mps 756 mmHg 92%
    06:00 -4°C° 0 mm 8 mps 756 mmHg 91%
    07:00 -4°C° 0 mm 8 mps 756 mmHg 91%
    08:00 -4°C° 0 mm 8 mps 756 mmHg 89%
    09:00 -4°C° 0 mm 9 mps 755 mmHg 87%
    10:00 -4°C° 0 mm 9 mps 755 mmHg 86%
    11:00 -4°C° 0 mm 9 mps 754 mmHg 84%
    12:00 -3°C° 0 mm 10 mps 753 mmHg 83%
    13:00 -3°C° 0 mm 10 mps 752 mmHg 81%
    14:00 -2°C° 0.1 mm 10 mps 751 mmHg 81%
    15:00 -2°C° 0.1 mm 10 mps 749 mmHg 81%
    16:00 -2°C° 0.1 mm 11 mps 748 mmHg 82%
    17:00 -2°C° 0.5 mm 11 mps 747 mmHg 83%
    18:00 -2°C° 0.5 mm 11 mps 746 mmHg 84%
    19:00 -1°C° 0.5 mm 11 mps 745 mmHg 85%
    20:00 0°C° 0.3 mm 10 mps 744 mmHg 87%
    21:00 0°C° 0.3 mm 10 mps 743 mmHg 88%
    22:00 0°C° 0.3 mm 9 mps 742 mmHg 90%
    23:00 0°C° 0.1 mm 8 mps 741 mmHg 90%

    Tomorrow, 14 December, Thursday

    Time Temperature Precipitation Wind Pressure Humidity
    00:00 0°C° 0.1 mm 8 mps 739 mmHg 90%
    01:00 0°C° 0.1 mm 8 mps 738 mmHg 89%
    02:00 0°C° 1 mm 9 mps 737 mmHg 88%
    03:00 +1°C° 1 mm 10 mps 736 mmHg 88%
    04:00 +1°C° 1 mm 11 mps 735 mmHg 87%
    05:00 +1°C° 0.1 mm 11 mps 735 mmHg 84%
    06:00 -1°C° 0.1 mm 12 mps 736 mmHg 82%
    07:00 -1°C° 0.1 mm 12 mps 736 mmHg 80%
    08:00 -1°C° 0 mm 12 mps 737 mmHg 80%
    09:00 -1°C° 0 mm 11 mps 737 mmHg 80%
    10:00 -1°C° 0 mm 11 mps 738 mmHg 80%
    11:00 -1°C° 0 mm 12 mps 739 mmHg 77%
    12:00 -1°C° 0 mm 12 mps 739 mmHg 75%
    13:00 -1°C° 0 mm 12 mps 740 mmHg 73%
    14:00 -1°C° 0 mm 12 mps 740 mmHg 75%
    15:00 -1°C° 0 mm 12 mps 740 mmHg 78%
    16:00 -1°C° 0 mm 11 mps 740 mmHg 80%
    17:00 -1°C° 0 mm 11 mps 740 mmHg 80%
    18:00 -1°C° 0 mm 11 mps 740 mmHg 80%
    19:00 -1°C° 0 mm 11 mps 739 mmHg 79%
    20:00 -2°C° 0 mm 10 mps 739 mmHg 82%
    21:00 -2°C° 0 mm 10 mps 739 mmHg 84%
    22:00 -3°C° 0 mm 9 mps 739 mmHg 86%
    23:00 -2°C° 0 mm 8 mps 739 mmHg 87%

    Day after tomorrow, 15 December, Friday

    Time Temperature Precipitation Wind Pressure Humidity
    00:00 -2°C° 0 mm 8 mps 739 mmHg 89%
    01:00 -2°C° 0 mm 7 mps 738 mmHg 91%
    02:00 -3°C° 0 mm 6 mps 738 mmHg 92%
    03:00 -3°C° 0 mm 6 mps 738 mmHg 92%
    04:00 -2°C° 0 mm 5 mps 738 mmHg 93%
    05:00 -2°C° 0 mm 5 mps 738 mmHg 92%
    06:00 -2°C° 0 mm 6 mps 739 mmHg 92%
    07:00 -2°C° 0 mm 6 mps 739 mmHg 91%
    08:00 -2°C° 0 mm 7 mps 740 mmHg 90%
    09:00 -2°C° 0 mm 7 mps 740 mmHg 89%
    10:00 -1°C° 0 mm 7 mps 741 mmHg 88%
    11:00 -1°C° 0 mm 7 mps 741 mmHg 87%
    12:00 0°C° 0 mm 7 mps 742 mmHg 86%
    13:00 +1°C° 0 mm 6 mps 742 mmHg 85%
    14:00 +1°C° 0 mm 6 mps 743 mmHg 87%
    15:00 +1°C° 0 mm 6 mps 743 mmHg 88%
    16:00 -1°C° 0 mm 6 mps 743 mmHg 90%
    17:00 -1°C° 0 mm 6 mps 743 mmHg 91%
    18:00 -1°C° 0 mm 6 mps 744 mmHg 92%
    19:00 -2°C° 0 mm 6 mps 744 mmHg 93%
    20:00 -2°C° 0 mm 6 mps 744 mmHg 93%
    21:00 -2°C° 0 mm 6 mps 745 mmHg 93%
    22:00 -2°C° 0 mm 6 mps 745 mmHg 93%
    23:00 -2°C° 0 mm 6 mps 745 mmHg 93%

    16 December, Saturday

    Time Temperature Precipitation Wind Pressure Humidity
    00:00 -2°C° 0 mm 6 mps 746 mmHg 92%
    01:00 -2°C° 0 mm 6 mps 746 mmHg 91%
    02:00 -2°C° 0 mm 6 mps 746 mmHg 90%
    03:00 -2°C° 0 mm 6 mps 746 mmHg 89%
    04:00 -2°C° 0 mm 7 mps 746 mmHg 87%
    05:00 -2°C° 0.1 mm 7 mps 747 mmHg 87%
    06:00 -2°C° 0.1 mm 7 mps 747 mmHg 88%
    07:00 -2°C° 0.1 mm 7 mps 747 mmHg 88%
    08:00 -1°C° 0.2 mm 7 mps 747 mmHg 86%
    09:00 -1°C° 0.2 mm 8 mps 748 mmHg 85%
    10:00 -1°C° 0.2 mm 8 mps 748 mmHg 83%
    11:00 0°C° 0.1 mm 8 mps 749 mmHg 80%
    12:00 0°C° 0.1 mm 7 mps 749 mmHg 76%
    13:00 +2°C° 0.1 mm 7 mps 749 mmHg 73%
    14:00 +1°C° 0 mm 6 mps 750 mmHg 75%
    15:00 -1°C° 0 mm 6 mps 750 mmHg 78%
    16:00 -1°C° 0 mm 5 mps 751 mmHg 80%
    17:00 -1°C° 0 mm 5 mps 751 mmHg 82%
    18:00 -1°C° 0 mm 5 mps 752 mmHg 84%
    19:00 -1°C° 0 mm 5 mps 752 mmHg 87%
    20:00 -1°C° 0 mm 5 mps 753 mmHg 87%
    21:00 -1°C° 0 mm 5 mps 754 mmHg 87%
    22:00 -1°C° 0 mm 5 mps 754 mmHg 87%
    23:00 -1°C° 0 mm 5 mps 755 mmHg 86%

    17 December, Sunday

    Time Temperature Precipitation Wind Pressure Humidity
    00:00 -2°C° 0 mm 5 mps 755 mmHg 86%
    01:00 -2°C° 0 mm 5 mps 756 mmHg 86%
    02:00 -2°C° 0 mm 4 mps 757 mmHg 86%
    03:00 -2°C° 0 mm 4 mps 757 mmHg 87%
    04:00 -2°C° 0 mm 4 mps 757 mmHg 87%
    05:00 -2°C° 0 mm 4 mps 758 mmHg 87%
    06:00 -2°C° 0 mm 4 mps 759 mmHg 87%
    07:00 -1°C° 0 mm 3 mps 759 mmHg 87%
    08:00 -1°C° 0 mm 3 mps 760 mmHg 87%
    09:00 -1°C° 0 mm 3 mps 761 mmHg 86%
    10:00 0°C° 0 mm 3 mps 761 mmHg 85%
    11:00 +1°C° 0 mm 2 mps 762 mmHg 84%
    12:00 +2°C° 0 mm 2 mps 762 mmHg 83%
    13:00 +3°C° 0 mm 2 mps 762 mmHg 82%
    14:00 +2°C° 0 mm 2 mps 763 mmHg 85%
    15:00 +1°C° 0 mm 2 mps 763 mmHg 88%
    16:00 -1°C° 0 mm 2 mps 764 mmHg 90%
    17:00 -1°C° 0 mm 2 mps 764 mmHg 91%
    18:00 -1°C° 0 mm 3 mps 765 mmHg 91%
    19:00 -1°C° 0 mm 3 mps 765 mmHg 91%
    20:00 -1°C° 0 mm 3 mps 765 mmHg 92%
    21:00 -1°C° 0 mm 3 mps 765 mmHg 92%
    22:00 -1°C° 0 mm 3 mps 766 mmHg 92%
    23:00 -1°C° 0 mm 3 mps 766 mmHg 92%

    18 December, Monday

    Time Temperature Precipitation Wind Pressure Humidity
    00:00 -2°C° 0 mm 4 mps 766 mmHg 92%
    01:00 -2°C° 0 mm 4 mps 766 mmHg 92%
    02:00 -2°C° 0 mm 4 mps 766 mmHg 93%
    03:00 -3°C° 0 mm 4 mps 766 mmHg 94%
    04:00 -3°C° 0 mm 4 mps 766 mmHg 95%
    05:00 -2°C° 0 mm 4 mps 766 mmHg 95%
    06:00 -2°C° 0 mm 4 mps 766 mmHg 96%
    07:00 -2°C° 0 mm 4 mps 766 mmHg 96%
    08:00 -1°C° 0 mm 4 mps 767 mmHg 96%
    09:00 -1°C° 0 mm 4 mps 767 mmHg 95%
    10:00 0°C° 0 mm 4 mps 767 mmHg 94%
    11:00 0°C° 0 mm 4 mps 767 mmHg 93%
    12:00 0°C° 0 mm 4 mps 767 mmHg 92%
    13:00 0°C° 0 mm 4 mps 768 mmHg 91%
    14:00 0°C° 0 mm 4 mps 768 mmHg 92%
    15:00 0°C° 0 mm 4 mps 768 mmHg 93%
    16:00 0°C° 0 mm 4 mps 768 mmHg 94%
    17:00 -1°C° 0.1 mm 4 mps 768 mmHg 93%
    18:00 -1°C° 0.1 mm 4 mps 768 mmHg 93%
    19:00 -1°C° 0.1 mm 4 mps 769 mmHg 93%
    20:00 -1°C° 0.1 mm 4 mps 769 mmHg 93%
    21:00 -1°C° 0.1 mm 4 mps 769 mmHg 93%
    22:00 -1°C° 0.1 mm 4 mps 769 mmHg 93%
    23:00 -1°C° 0.1 mm 4 mps 769 mmHg 93%
    Show more